| time (UTC) | temp C | wind direction | speed KPH | gust KPH | rain 1hr cm | rain 24hr cm | rain mn cm | humidity % | barometer mb |
| 20260510093800 | 7 | 64 | 0.0 | 0.0 | 0.00 | 0.00 | 0.00 | 99 | 1006.2 |
| 20260510093257 | 7 | 68 | 0.0 | 0.0 | 0.00 | 0.00 | 0.00 | 99 | 1006.3 |
| 20260510092753 | 7 | 64 | 0.0 | 0.0 | 0.00 | 0.00 | 0.00 | 99 | 1006.1 |
| 20260510092249 | 7 | 67 | 0.0 | 0.0 | 0.00 | 0.00 | 0.00 | 99 | 1006.2 |
| 20260510091745 | 7 | 69 | 0.0 | 0.0 | 0.00 | 0.00 | 0.00 | 99 | 1006.0 |
| 20260510091243 | 7 | 61 | 0.0 | 0.0 | 0.00 | 0.00 | 0.00 | 99 | 1005.9 |
| 20260510090739 | 7 | 61 | 0.0 | 0.0 | 0.00 | 0.00 | 0.00 | 99 | 1006.0 |
| 20260510090236 | 7 | 55 | 0.0 | 0.0 | 0.00 | 0.00 | 0.00 | 99 | 1006.3 |
| 20260510085731 | 7 | 60 | 0.0 | 0.0 | 0.00 | 0.00 | 0.00 | 99 | 1005.9 |
| 20260510085225 | 7 | 60 | 0.0 | 0.0 | 0.00 | 0.00 | 0.00 | 99 | 1005.8 |
| 20260510084722 | 7 | 63 | 0.0 | 0.0 | 0.00 | 0.00 | 0.00 | 99 | 1005.9 |
| 20260510084219 | 8 | 68 | 0.0 | 0.0 | 0.00 | 0.00 | 0.00 | 99 | 1005.9 |
| 20260510083715 | 8 | 67 | 0.0 | 0.0 | 0.00 | 0.00 | 0.00 | 99 | 1006.0 |
| 20260510083213 | 8 | 63 | 0.0 | 0.0 | 0.00 | 0.00 | 0.00 | 99 | 1006.0 |
| 20260510082708 | 8 | 69 | 0.0 | 0.0 | 0.00 | 0.00 | 0.00 | 99 | 1006.0 |
| 20260510082205 | 7 | 67 | 0.0 | 0.0 | 0.00 | 0.00 | 0.00 | 99 | 1006.2 |
| 20260510081704 | 7 | 57 | 0.0 | 0.0 | 0.00 | 0.00 | 0.00 | 99 | 1006.1 |
| 20260510081201 | 8 | 62 | 0.0 | 0.0 | 0.00 | 0.00 | 0.00 | 99 | 1005.9 |
| 20260510080655 | 8 | 68 | 0.0 | 0.0 | 0.00 | 0.00 | 0.00 | 99 | 1005.9 |
| 20260510080152 | 8 | 65 | 0.0 | 0.0 | 0.00 | 0.00 | 0.00 | 99 | 1006.0 |
| 20260510075649 | 8 | 64 | 0.0 | 0.0 | 0.00 | 0.00 | 0.00 | 99 | 1006.0 |
| 20260510075146 | 8 | 62 | 0.0 | 0.0 | 0.00 | 0.00 | 0.00 | 99 | 1005.9 |
| 20260510074643 | 8 | 65 | 0.0 | 0.0 | 0.00 | 0.00 | 0.00 | 99 | 1006.1 |
| 20260510074139 | 8 | 65 | 0.0 | 0.0 | 0.00 | 0.00 | 0.00 | 99 | 1006.3 |
| 20260510073636 | 8 | 51 | 0.0 | 0.0 | 0.00 | 0.00 | 0.00 | 99 | 1006.2 |
| 20260510073132 | 8 | 64 | 0.0 | 0.0 | 0.00 | 0.00 | 0.00 | 99 | 1006.3 |
| 20260510072628 | 8 | 56 | 0.0 | 0.0 | 0.00 | 0.00 | 0.00 | 99 | 1006.3 |
| 20260510072125 | 8 | 61 | 0.0 | 0.0 | 0.00 | 0.00 | 0.00 | 99 | 1006.2 |
| 20260510071620 | 8 | 75 | 0.0 | 0.0 | 0.00 | 0.00 | 0.00 | 99 | 1005.5 |
| 20260510071118 | 8 | 74 | 0.0 | 0.0 | 0.00 | 0.00 | 0.00 | 99 | 1006.0 |
| 20260510070615 | 8 | 74 | 0.0 | 0.0 | 0.00 | 0.00 | 0.00 | 99 | 1006.1 |
| 20260510070112 | 8 | 74 | 0.0 | 0.0 | 0.00 | 0.00 | 0.00 | 99 | 1006.3 |
| 20260510065603 | 8 | 75 | 0.0 | 0.0 | 0.00 | 0.00 | 0.00 | 99 | 1006.2 |
| 20260510065059 | 9 | 78 | 0.0 | 0.0 | 0.00 | 0.00 | 0.00 | 99 | 1006.3 |
| 20260510064555 | 9 | 81 | 0.0 | 0.0 | 0.00 | 0.00 | 0.00 | 99 | 1006.5 |
| 20260510064052 | 9 | 65 | 0.0 | 0.0 | 0.00 | 0.00 | 0.00 | 99 | 1006.7 |
| 20260510063549 | 9 | 64 | 0.0 | 0.0 | 0.00 | 0.00 | 0.00 | 99 | 1007.0 |
| 20260510063046 | 9 | 72 | 0.0 | 0.0 | 0.00 | 0.00 | 0.00 | 99 | 1006.9 |
| 20260510062542 | 9 | 63 | 0.0 | 0.0 | 0.00 | 0.00 | 0.00 | 99 | 1007.2 |
| 20260510062037 | 9 | 62 | 0.0 | 0.0 | 0.00 | 0.00 | 0.00 | 99 | 1006.9 |
| 20260510061534 | 9 | 62 | 0.0 | 0.0 | 0.00 | 0.00 | 0.00 | 99 | 1006.9 |
| 20260510061031 | 9 | 62 | 0.0 | 0.0 | 0.00 | 0.00 | 0.00 | 99 | 1006.9 |
| 20260510060527 | 9 | 64 | 0.0 | 0.0 | 0.00 | 0.00 | 0.00 | 99 | 1006.9 |
| 20260510060023 | 9 | 50 | 0.0 | 0.0 | 0.00 | 0.00 | 0.00 | 99 | 1007.1 |
| 20260510055519 | 9 | 54 | 0.0 | 0.0 | 0.00 | 0.00 | 0.00 | 99 | 1006.9 |
| 20260510055018 | 9 | 55 | 0.0 | 0.0 | 0.00 | 0.00 | 0.00 | 99 | 1006.7 |
| 20260510054513 | 9 | 61 | 0.0 | 0.0 | 0.00 | 0.00 | 0.00 | 99 | 1006.5 |
| 20260510054009 | 8 | 57 | 0.0 | 0.0 | 0.00 | 0.00 | 0.00 | 99 | 1006.6 |
| 20260510053503 | 8 | 51 | 0.0 | 0.0 | 0.00 | 0.00 | 0.00 | 99 | 1006.6 |
| 20260510053000 | 8 | 59 | 0.0 | 0.0 | 0.00 | 0.00 | 0.00 | 99 | 1006.5 |
| 20260510052456 | 8 | 50 | 0.0 | 0.0 | 0.00 | 0.00 | 0.00 | 99 | 1006.3 |
| 20260510051953 | 8 | 51 | 0.0 | 0.0 | 0.00 | 0.00 | 0.00 | 99 | 1006.2 |
| 20260510051448 | 8 | 55 | 0.0 | 0.0 | 0.00 | 0.00 | 0.00 | 99 | 1006.2 |
| 20260510050944 | 8 | 68 | 0.0 | 0.0 | 0.00 | 0.00 | 0.00 | 99 | 1006.2 |
| 20260510050442 | 8 | 68 | 0.0 | 0.0 | 0.00 | 0.00 | 0.00 | 99 | 1006.1 |
| 20260510045939 | 8 | 71 | 0.0 | 0.0 | 0.00 | 0.00 | 0.00 | 99 | 1006.3 |
| 20260510045436 | 8 | 64 | 0.0 | 0.0 | 0.00 | 0.00 | 0.00 | 99 | 1006.0 |
| 20260510044933 | 8 | 75 | 0.0 | 0.0 | 0.00 | 0.00 | 0.00 | 99 | 1006.2 |
| 20260510044430 | 9 | 63 | 0.0 | 0.0 | 0.00 | 0.00 | 0.00 | 99 | 1006.3 |
| 20260510043926 | 9 | 57 | 0.0 | 0.0 | 0.00 | 0.00 | 0.00 | 99 | 1006.1 |
| 20260510043422 | 9 | 69 | 0.0 | 0.0 | 0.00 | 0.00 | 0.00 | 99 | 1006.2 |
| 20260510042921 | 9 | 68 | 0.0 | 0.0 | 0.00 | 0.00 | 0.00 | 99 | 1006.2 |
| 20260510042416 | 9 | 64 | 0.0 | 0.0 | 0.00 | 0.00 | 0.00 | 99 | 1006.3 |
| 20260510041912 | 9 | 62 | 0.0 | 0.0 | 0.00 | 0.00 | 0.00 | 99 | 1006.2 |
| 20260510041410 | 9 | 74 | 0.0 | 0.0 | 0.00 | 0.00 | 0.00 | 99 | 1006.4 |
| 20260510040907 | 9 | 78 | 0.0 | 0.0 | 0.00 | 0.00 | 0.00 | 99 | 1006.4 |
| 20260510040404 | 9 | 61 | 0.0 | 0.0 | 0.00 | 0.00 | 0.00 | 99 | 1006.7 |
| 20260510035900 | 9 | 67 | 0.0 | 0.0 | 0.00 | 0.97 | 0.97 | 99 | 1006.4 |
| 20260510035356 | 9 | 58 | 0.0 | 0.0 | 0.00 | 0.97 | 0.97 | 99 | 1006.3 |
| 20260510034851 | 9 | 68 | 0.0 | 0.0 | 0.00 | 0.97 | 0.97 | 99 | 1006.2 |
| 20260510034349 | 9 | 59 | 0.0 | 0.0 | 0.00 | 0.97 | 0.97 | 99 | 1006.2 |
| 20260510033845 | 9 | 64 | 0.0 | 0.0 | 0.00 | 0.97 | 0.97 | 99 | 1006.1 |
| 20260510033342 | 10 | 82 | 0.0 | 0.0 | 0.00 | 0.97 | 0.97 | 99 | 1006.2 |
| 20260510032838 | 10 | 76 | 0.0 | 0.0 | 0.00 | 0.97 | 0.97 | 99 | 1006.1 |
| 20260510032336 | 10 | 78 | 0.0 | 0.0 | 0.00 | 0.97 | 0.97 | 99 | 1006.2 |
| 20260510031831 | 10 | 74 | 0.0 | 0.0 | 0.00 | 0.97 | 0.97 | 99 | 1006.3 |
| 20260510031326 | 10 | 67 | 0.0 | 0.0 | 0.00 | 0.97 | 0.97 | 99 | 1006.0 |
| 20260510030821 | 10 | 34 | 0.0 | 0.0 | 0.00 | 0.97 | 0.97 | 99 | 1006.1 |
| 20260510030318 | 10 | 62 | 0.0 | 0.0 | 0.00 | 0.97 | 0.97 | 99 | 1006.0 |
| 20260510025815 | 10 | 53 | 0.0 | 0.0 | 0.00 | 0.97 | 0.97 | 99 | 1006.0 |
| 20260510025312 | 10 | 72 | 0.0 | 0.0 | 0.00 | 0.97 | 0.97 | 99 | 1005.9 |
| 20260510024809 | 10 | 71 | 0.0 | 0.0 | 0.00 | 0.97 | 0.97 | 99 | 1006.1 |
| 20260510024306 | 9 | 68 | 0.0 | 0.0 | 0.00 | 0.97 | 0.97 | 99 | 1006.3 |
| 20260510023802 | 9 | 59 | 0.0 | 0.0 | 0.00 | 0.97 | 0.97 | 99 | 1006.2 |
| 20260510023259 | 10 | 65 | 0.0 | 0.0 | 0.00 | 0.97 | 0.97 | 99 | 1006.1 |
| 20260510022756 | 9 | 69 | 0.0 | 0.0 | 0.00 | 0.97 | 0.97 | 99 | 1006.0 |
| 20260510022255 | 10 | 68 | 0.0 | 0.0 | 0.00 | 0.97 | 0.97 | 99 | 1006.0 |
| 20260510021754 | 10 | 59 | 0.0 | 0.0 | 0.00 | 0.97 | 0.97 | 99 | 1005.9 |
| 20260510021253 | 10 | 82 | 0.0 | 0.0 | 0.00 | 0.97 | 0.97 | 99 | 1006.2 |
| 20260510020748 | 10 | 64 | 0.0 | 0.0 | 0.00 | 0.97 | 0.97 | 99 | 1006.3 |
| 20260510020242 | 10 | 84 | 0.0 | 0.0 | 0.00 | 0.97 | 0.97 | 99 | 1005.9 |
| 20260510015739 | 10 | 74 | 0.0 | 0.0 | 0.00 | 0.97 | 0.97 | 99 | 1006.2 |
| 20260510015235 | 10 | 75 | 0.0 | 0.0 | 0.00 | 0.97 | 0.97 | 99 | 1006.3 |
| 20260510014730 | 10 | 69 | 0.0 | 0.0 | 0.00 | 0.97 | 0.97 | 99 | 1006.2 |
| 20260510014228 | 10 | 67 | 0.0 | 0.0 | 0.00 | 0.97 | 0.97 | 99 | 1006.0 |
| 20260510013724 | 10 | 67 | 0.0 | 0.0 | 0.00 | 0.97 | 0.97 | 99 | 1006.1 |
| 20260510013219 | 10 | 69 | 0.0 | 0.0 | 0.00 | 0.97 | 0.97 | 99 | 1006.3 |
| 20260510012719 | 10 | 73 | 0.0 | 0.0 | 0.00 | 0.97 | 0.97 | 99 | 1006.1 |
| 20260510012214 | 10 | 64 | 0.0 | 0.0 | 0.00 | 0.97 | 0.97 | 99 | 1006.1 |
| 20260510011709 | 10 | 65 | 0.0 | 0.0 | 0.00 | 0.97 | 0.97 | 99 | 1005.8 |
| 20260510011205 | 10 | 65 | 0.0 | 0.0 | 0.00 | 0.97 | 0.97 | 99 | 1006.0 |
| 20260510010702 | 10 | 67 | 0.0 | 0.0 | 0.00 | 0.97 | 0.97 | 99 | 1005.9 |
| 20260510010158 | 10 | 60 | 0.0 | 0.0 | 0.00 | 0.97 | 0.97 | 99 | 1006.2 |
| 20260510005655 | 10 | 79 | 0.0 | 0.0 | 0.00 | 0.97 | 0.97 | 99 | 1006.4 |
| 20260510005151 | 10 | 64 | 0.0 | 0.0 | 0.00 | 0.97 | 0.97 | 99 | 1006.0 |
| 20260510004650 | 10 | 68 | 0.0 | 0.0 | 0.00 | 0.97 | 0.97 | 99 | 1005.8 |
| 20260510004148 | 10 | 65 | 0.0 | 0.0 | 0.00 | 0.97 | 0.97 | 99 | 1005.9 |
| 20260510003645 | 10 | 64 | 0.0 | 0.0 | 0.00 | 0.97 | 0.97 | 99 | 1005.6 |
| 20260510003140 | 10 | 64 | 0.0 | 0.0 | 0.00 | 0.97 | 0.97 | 99 | 1005.5 |
| 20260510002635 | 10 | 68 | 0.0 | 0.0 | 0.00 | 0.97 | 0.97 | 99 | 1005.6 |
| 20260510002132 | 10 | 62 | 0.0 | 0.0 | 0.00 | 0.97 | 0.97 | 99 | 1005.7 |
| 20260510001629 | 10 | 64 | 0.0 | 0.0 | 0.00 | 0.97 | 0.97 | 99 | 1005.7 |
| 20260510001128 | 10 | 69 | 0.0 | 0.0 | 0.00 | 0.97 | 0.97 | 99 | 1005.7 |
| 20260510000627 | 10 | 69 | 0.0 | 0.0 | 0.00 | 0.97 | 0.97 | 99 | 1005.8 |
| 20260510000126 | 10 | 69 | 0.0 | 0.0 | 0.00 | 0.97 | 0.97 | 99 | 1005.5 |
| 20260509235621 | 10 | 64 | 0.0 | 0.0 | 0.00 | 0.97 | 0.97 | 99 | 1005.6 |
| 20260509235118 | 10 | 108 | 1.6 | 1.6 | 0.00 | 0.97 | 0.97 | 99 | 1005.3 |
| 20260509234614 | 10 | 69 | 0.0 | 0.0 | 0.00 | 0.97 | 0.97 | 99 | 1005.1 |
| 20260509234112 | 11 | 62 | 0.0 | 0.0 | 0.00 | 0.97 | 0.97 | 99 | 1005.0 |
| 20260509233610 | 11 | 61 | 0.0 | 0.0 | 0.00 | 0.97 | 0.97 | 99 | 1005.2 |
| 20260509233107 | 11 | 63 | 0.0 | 0.0 | 0.00 | 0.97 | 0.97 | 99 | 1005.1 |
| 20260509232603 | 11 | 67 | 0.0 | 0.0 | 0.00 | 0.97 | 0.97 | 99 | 1005.0 |
| 20260509232100 | 11 | 67 | 0.0 | 0.0 | 0.00 | 0.97 | 0.97 | 99 | 1005.0 |
| 20260509231556 | 11 | 67 | 0.0 | 0.0 | 0.00 | 0.97 | 0.97 | 99 | 1005.0 |
| 20260509231054 | 11 | 67 | 0.0 | 0.0 | 0.00 | 0.97 | 0.97 | 99 | 1005.1 |
| 20260509230551 | 11 | 62 | 0.0 | 0.0 | 0.00 | 0.97 | 0.97 | 99 | 1004.8 |
| 20260509230048 | 11 | 89 | 0.0 | 0.0 | 0.00 | 0.97 | 0.97 | 99 | 1004.8 |
| 20260509225549 | 11 | 69 | 0.0 | 0.0 | 0.00 | 0.97 | 0.97 | 99 | 1004.9 |
| 20260509225044 | 11 | 63 | 1.6 | 1.6 | 0.00 | 0.97 | 0.97 | 99 | 1004.8 |
| 20260509224540 | 11 | 62 | 0.0 | 0.0 | 0.00 | 0.97 | 0.97 | 99 | 1004.8 |
| 20260509224037 | 11 | 37 | 1.6 | 1.6 | 0.00 | 0.97 | 0.97 | 99 | 1004.7 |
| 20260509223534 | 11 | 71 | 0.0 | 0.0 | 0.00 | 0.97 | 0.97 | 99 | 1004.7 |
| 20260509223032 | 11 | 58 | 0.0 | 0.0 | 0.00 | 0.97 | 0.97 | 99 | 1004.7 |
| 20260509222528 | 11 | 83 | 0.0 | 0.0 | 0.00 | 0.97 | 0.97 | 99 | 1004.7 |
| 20260509222023 | 11 | 84 | 1.6 | 1.6 | 0.00 | 0.97 | 0.97 | 99 | 1004.9 |
| 20260509221520 | 11 | 71 | 0.0 | 0.0 | 0.00 | 0.97 | 0.97 | 99 | 1005.0 |
| 20260509221016 | 11 | 65 | 0.0 | 0.0 | 0.00 | 0.97 | 0.97 | 99 | 1004.9 |
| 20260509220512 | 11 | 65 | 0.0 | 0.0 | 0.00 | 0.97 | 0.97 | 99 | 1005.1 |
| 20260509220008 | 11 | 58 | 0.0 | 1.6 | 0.00 | 0.97 | 0.97 | 99 | 1005.0 |
| 20260509215503 | 11 | 69 | 0.0 | 1.6 | 0.00 | 0.97 | 0.97 | 99 | 1005.1 |
| 20260509215001 | 11 | 63 | 0.0 | 0.0 | 0.00 | 0.97 | 0.97 | 99 | 1005.1 |
| 20260509214458 | 11 | 73 | 0.0 | 0.0 | 0.00 | 0.97 | 0.97 | 99 | 1005.2 |
| 20260509213955 | 11 | 79 | 0.0 | 0.0 | 0.00 | 0.97 | 0.97 | 99 | 1005.0 |
| 20260509213451 | 11 | 59 | 0.0 | 0.0 | 0.00 | 0.97 | 0.97 | 99 | 1005.3 |
| 20260509212948 | 11 | 73 | 0.0 | 0.0 | 0.00 | 0.97 | 0.97 | 99 | 1005.4 |
| 20260509212445 | 10 | 81 | 0.0 | 0.0 | 0.00 | 0.97 | 0.97 | 99 | 1005.3 |
| 20260509211942 | 10 | 67 | 0.0 | 0.0 | 0.00 | 0.97 | 0.97 | 99 | 1005.4 |
| 20260509211437 | 10 | 63 | 0.0 | 0.0 | 0.00 | 0.97 | 0.97 | 99 | 1005.4 |
| 20260509210934 | 10 | 64 | 0.0 | 0.0 | 0.00 | 0.97 | 0.97 | 99 | 1005.3 |
| 20260509210431 | 10 | 79 | 0.0 | 0.0 | 0.00 | 0.97 | 0.97 | 99 | 1005.3 |
| 20260509205926 | 10 | 74 | 0.0 | 0.0 | 0.00 | 0.97 | 0.97 | 99 | 1005.3 |
| 20260509205421 | 10 | 73 | 0.0 | 0.0 | 0.00 | 0.97 | 0.97 | 99 | 1005.4 |
| 20260509204917 | 10 | 70 | 0.0 | 0.0 | 0.00 | 0.97 | 0.97 | 99 | 1005.5 |
| 20260509204414 | 10 | 70 | 0.0 | 0.0 | 0.00 | 0.97 | 0.97 | 99 | 1005.5 |
| 20260509203910 | 10 | 62 | 0.0 | 0.0 | 0.00 | 0.97 | 0.97 | 99 | 1005.5 |
| 20260509203406 | 10 | 62 | 0.0 | 0.0 | 0.00 | 0.97 | 0.97 | 99 | 1005.4 |
| 20260509202904 | 10 | 83 | 0.0 | 0.0 | 0.00 | 0.97 | 0.97 | 99 | 1005.7 |
| 20260509202359 | 10 | 27 | 1.6 | 1.6 | 0.00 | 0.97 | 0.97 | 99 | 1005.9 |
| 20260509201855 | 10 | 79 | 0.0 | 1.6 | 0.00 | 0.97 | 0.97 | 99 | 1005.7 |
| 20260509201350 | 10 | 72 | 0.0 | 0.0 | 0.00 | 0.97 | 0.97 | 99 | 1005.9 |
| 20260509200848 | 9 | 106 | 3.2 | 4.8 | 0.00 | 0.97 | 0.97 | 99 | 1006.0 |
| 20260509200342 | 9 | 64 | 0.0 | 0.0 | 0.00 | 0.97 | 0.97 | 99 | 1005.9 |
| 20260509195839 | 9 | 82 | 1.6 | 3.2 | 0.00 | 0.97 | 0.97 | 99 | 1006.1 |
| 20260509195334 | 9 | 39 | 0.0 | 1.6 | 0.00 | 0.97 | 0.97 | 99 | 1006.1 |
| 20260509194833 | 9 | 71 | 0.0 | 0.0 | 0.00 | 0.97 | 0.97 | 99 | 1006.2 |
| 20260509194330 | 9 | 90 | 1.6 | 3.2 | 0.00 | 0.97 | 0.97 | 99 | 1006.2 |
| 20260509193827 | 9 | 73 | 0.0 | 0.0 | 0.00 | 0.97 | 0.97 | 99 | 1006.1 |
| 20260509193321 | 9 | 49 | 1.6 | 1.6 | 0.00 | 0.97 | 0.97 | 99 | 1006.4 |
| 20260509192817 | 8 | 61 | 0.0 | 0.0 | 0.13 | 0.97 | 0.97 | 99 | 1006.4 |
| 20260509192314 | 8 | 74 | 0.0 | 0.0 | 0.13 | 0.97 | 0.97 | 99 | 1006.6 |
| 20260509191809 | 8 | 68 | 0.0 | 0.0 | 0.00 | 0.94 | 0.94 | 99 | 1006.7 |
| 20260509191305 | 9 | 86 | 0.0 | 1.6 | 0.00 | 0.94 | 0.94 | 99 | 1006.6 |
| 20260509190801 | 8 | 86 | 1.6 | 1.6 | 0.00 | 0.94 | 0.94 | 99 | 1006.6 |
| 20260509190258 | 9 | 65 | 0.0 | 0.0 | 0.00 | 0.94 | 0.94 | 99 | 1006.9 |
| 20260509185755 | 9 | 73 | 0.0 | 1.6 | 0.00 | 0.94 | 0.94 | 99 | 1006.9 |
| 20260509185251 | 8 | 77 | 0.0 | 1.6 | 0.00 | 0.94 | 0.94 | 99 | 1006.7 |
| 20260509184749 | 8 | 58 | 0.0 | 1.6 | 0.00 | 0.94 | 0.94 | 99 | 1006.7 |
| 20260509184247 | 8 | 65 | 0.0 | 0.0 | 0.00 | 0.94 | 0.94 | 99 | 1006.9 |
| 20260509183743 | 8 | 86 | 1.6 | 3.2 | 0.00 | 0.94 | 0.94 | 99 | 1006.9 |
| 20260509183238 | 8 | 61 | 0.0 | 0.0 | 0.00 | 0.94 | 0.94 | 99 | 1006.5 |
| 20260509182734 | 8 | 36 | 1.6 | 3.2 | 0.00 | 0.94 | 0.94 | 99 | 1006.7 |
| 20260509182232 | 8 | 71 | 0.0 | 0.0 | 0.18 | 0.94 | 0.94 | 99 | 1006.5 |
| 20260509181729 | 8 | 57 | 0.0 | 0.0 | 0.18 | 0.94 | 0.94 | 99 | 1006.7 |
| 20260509181226 | 8 | 63 | 0.0 | 0.0 | 0.18 | 0.94 | 0.94 | 99 | 1006.5 |
| 20260509180723 | 8 | 80 | 0.0 | 0.0 | 0.00 | 0.91 | 0.91 | 99 | 1006.6 |
| 20260509180219 | 8 | 89 | 0.0 | 0.0 | 0.00 | 0.91 | 0.91 | 99 | 1006.9 |
| 20260509175716 | 8 | 73 | 1.6 | 1.6 | 0.00 | 0.91 | 0.91 | 99 | 1006.6 |
| 20260509175212 | 8 | 90 | 3.2 | 4.8 | 0.00 | 0.91 | 0.91 | 99 | 1006.9 |
| 20260509174708 | 8 | 72 | 0.0 | 0.0 | 0.00 | 0.91 | 0.91 | 99 | 1006.9 |
| 20260509174203 | 8 | 59 | 0.0 | 0.0 | 0.00 | 0.91 | 0.91 | 99 | 1006.9 |
| 20260509173700 | 8 | 77 | 1.6 | 1.6 | 0.00 | 0.91 | 0.91 | 99 | 1006.7 |
| 20260509173155 | 8 | 78 | 0.0 | 0.0 | 0.00 | 0.91 | 0.91 | 99 | 1007.1 |
| 20260509172652 | 7 | 57 | 0.0 | 1.6 | 0.13 | 0.91 | 0.91 | 99 | 1006.9 |
| 20260509172148 | 7 | 69 | 0.0 | 0.0 | 0.13 | 0.91 | 0.91 | 99 | 1007.0 |
| 20260509171643 | 7 | 80 | 0.0 | 0.0 | 0.00 | 0.89 | 0.89 | 99 | 1007.2 |
| 20260509171140 | 7 | 59 | 0.0 | 1.6 | 0.00 | 0.89 | 0.89 | 99 | 1007.2 |
| 20260509170637 | 7 | 74 | 0.0 | 1.6 | 0.18 | 0.89 | 0.89 | 99 | 1007.3 |
| 20260509170133 | 7 | 78 | 0.0 | 1.6 | 0.18 | 0.89 | 0.89 | 99 | 1007.0 |
| 20260509165631 | 8 | 84 | 0.0 | 0.0 | 0.00 | 0.86 | 0.86 | 99 | 1007.1 |
| 20260509165127 | 8 | 77 | 0.0 | 0.0 | 0.00 | 0.86 | 0.86 | 99 | 1007.2 |
| 20260509164624 | 7 | 80 | 0.0 | 0.0 | 0.13 | 0.86 | 0.86 | 99 | 1007.6 |
| 20260509164119 | 8 | 57 | 1.6 | 3.2 | 0.13 | 0.86 | 0.86 | 99 | 1007.3 |
| 20260509163617 | 8 | 77 | 0.0 | 0.0 | 0.18 | 0.84 | 0.84 | 99 | 1007.5 |
| 20260509163113 | 7 | 90 | 1.6 | 3.2 | 0.18 | 0.84 | 0.84 | 99 | 1007.7 |
| 20260509162610 | 7 | 60 | 1.6 | 3.2 | 0.18 | 0.84 | 0.84 | 99 | 1007.4 |
| 20260509162106 | 7 | 176 | 1.6 | 1.6 | 0.00 | 0.81 | 0.81 | 99 | 1007.5 |
| 20260509161603 | 8 | 67 | 0.0 | 0.0 | 0.13 | 0.81 | 0.81 | 99 | 1007.7 |
| 20260509161102 | 7 | 58 | 3.2 | 3.2 | 0.13 | 0.81 | 0.81 | 99 | 1007.6 |
| 20260509160559 | 7 | 37 | 1.6 | 3.2 | 0.00 | 0.79 | 0.79 | 99 | 1007.7 |
| 20260509160054 | 7 | 69 | 0.0 | 1.6 | 0.18 | 0.79 | 0.79 | 99 | 1007.9 |
| 20260509155551 | 7 | 89 | 1.6 | 1.6 | 0.18 | 0.79 | 0.79 | 99 | 1007.9 |
| 20260509155047 | 7 | 60 | 1.6 | 3.2 | 0.18 | 0.76 | 0.76 | 99 | 1008.1 |
| 20260509154543 | 7 | 142 | 3.2 | 3.2 | 0.18 | 0.76 | 0.76 | 99 | 1008.1 |
| 20260509154041 | 7 | 84 | 0.0 | 1.6 | 0.13 | 0.74 | 0.74 | 99 | 1008.1 |
| 20260509153538 | 7 | 105 | 0.0 | 0.0 | 0.13 | 0.74 | 0.74 | 99 | 1008.4 |
| 20260509153035 | 7 | 58 | 0.0 | 1.6 | 0.18 | 0.71 | 0.71 | 99 | 1008.2 |
| 20260509152530 | 7 | 72 | 0.0 | 0.0 | 0.30 | 0.71 | 0.71 | 99 | 1008.3 |
| 20260509152028 | 7 | 114 | 1.6 | 1.6 | 0.30 | 0.69 | 0.69 | 99 | 1008.4 |
| 20260509151524 | 7 | 67 | 0.0 | 0.0 | 0.30 | 0.66 | 0.66 | 99 | 1008.5 |
| 20260509151022 | 7 | 77 | 3.2 | 3.2 | 0.13 | 0.64 | 0.64 | 99 | 1008.6 |
| 20260509150519 | 7 | 49 | 0.0 | 0.0 | 0.30 | 0.64 | 0.64 | 99 | 1008.7 |
| 20260509150018 | 7 | 67 | 0.0 | 1.6 | 0.30 | 0.61 | 0.61 | 99 | 1008.7 |
| 20260509145513 | 7 | 66 | 0.0 | 0.0 | 0.13 | 0.58 | 0.58 | 99 | 1008.7 |
| 20260509145008 | 6 | 70 | 0.0 | 0.0 | 0.18 | 0.56 | 0.56 | 99 | 1008.5 |
| 20260509144505 | 6 | 75 | 0.0 | 0.0 | 0.30 | 0.56 | 0.56 | 99 | 1008.6 |
| 20260509144002 | 6 | 69 | 0.0 | 0.0 | 0.13 | 0.53 | 0.53 | 99 | 1008.5 |
| 20260509143459 | 6 | 69 | 1.6 | 1.6 | 0.18 | 0.51 | 0.51 | 99 | 1008.6 |
| 20260509142956 | 6 | 69 | 0.0 | 0.0 | 0.18 | 0.51 | 0.51 | 99 | 1008.6 |
| 20260509142452 | 6 | 79 | 0.0 | 0.0 | 0.18 | 0.48 | 0.48 | 99 | 1008.6 |
| 20260509141948 | 6 | 84 | 0.0 | 0.0 | 0.18 | 0.48 | 0.48 | 99 | 1008.7 |
| 20260509141444 | 6 | 111 | 1.6 | 3.2 | 0.00 | 0.46 | 0.46 | 99 | 1008.5 |
| 20260509140941 | 6 | 71 | 1.6 | 3.2 | 0.13 | 0.46 | 0.46 | 99 | 1008.6 |
| 20260509140437 | 6 | 78 | 0.0 | 0.0 | 0.30 | 0.46 | 0.46 | 99 | 1008.7 |
| 20260509135936 | 6 | 75 | 0.0 | 1.6 | 0.18 | 0.43 | 0.43 | 99 | 1008.5 |
| 20260509135433 | 6 | 102 | 0.0 | 1.6 | 0.18 | 0.43 | 0.43 | 99 | 1008.6 |
| 20260509134930 | 6 | 75 | 0.0 | 0.0 | 0.13 | 0.41 | 0.41 | 99 | 1008.6 |
| 20260509134428 | 6 | 95 | 0.0 | 0.0 | 0.13 | 0.41 | 0.41 | 99 | 1008.6 |
| 20260509133925 | 6 | 78 | 0.0 | 0.0 | 0.18 | 0.38 | 0.38 | 99 | 1008.6 |
| 20260509133421 | 6 | 75 | 0.0 | 0.0 | 0.18 | 0.38 | 0.38 | 99 | 1008.7 |
| 20260509132920 | 6 | 87 | 0.0 | 0.0 | 0.13 | 0.36 | 0.36 | 99 | 1008.4 |
| 20260509132418 | 6 | 73 | 0.0 | 0.0 | 0.30 | 0.36 | 0.36 | 99 | 1008.6 |
| 20260509131914 | 6 | 73 | 0.0 | 0.0 | 0.30 | 0.33 | 0.33 | 99 | 1008.6 |
| 20260509131412 | 6 | 74 | 0.0 | 0.0 | 0.30 | 0.30 | 0.30 | 99 | 1008.6 |
| 20260509130908 | 6 | 74 | 0.0 | 0.0 | 0.18 | 0.28 | 0.28 | 99 | 1008.7 |
| 20260509130403 | 6 | 73 | 0.0 | 0.0 | 0.13 | 0.25 | 0.25 | 99 | 1008.5 |
| 20260509125901 | 5 | 95 | 0.0 | 0.0 | 0.13 | 0.25 | 0.25 | 99 | 1008.7 |
| 20260509125357 | 6 | 117 | 1.6 | 1.6 | 0.18 | 0.23 | 0.23 | 99 | 1008.7 |
| 20260509124853 | 5 | 69 | 0.0 | 0.0 | 0.18 | 0.23 | 0.23 | 99 | 1008.7 |
| 20260509124350 | 5 | 73 | 0.0 | 0.0 | 0.13 | 0.20 | 0.20 | 99 | 1008.7 |
| 20260509123848 | 5 | 73 | 0.0 | 0.0 | 0.13 | 0.20 | 0.20 | 99 | 1008.9 |
| 20260509123345 | 5 | 79 | 0.0 | 0.0 | 0.18 | 0.18 | 0.18 | 99 | 1008.7 |
| 20260509122841 | 5 | 81 | 0.0 | 0.0 | 0.18 | 0.18 | 0.18 | 99 | 1008.9 |
| 20260509122338 | 5 | 82 | 0.0 | 0.0 | 0.18 | 0.15 | 0.15 | 99 | 1008.8 |
| 20260509121835 | 5 | 74 | 0.0 | 0.0 | 0.18 | 0.15 | 0.15 | 99 | 1008.8 |
| 20260509121332 | 5 | 75 | 0.0 | 0.0 | 0.13 | 0.13 | 0.13 | 98 | 1008.7 |
| 20260509120830 | 5 | 73 | 0.0 | 1.6 | 0.13 | 0.13 | 0.13 | 98 | 1008.7 |
| 20260509120327 | 5 | 71 | 0.0 | 0.0 | 0.00 | 0.10 | 0.10 | 98 | 1008.8 |
| 20260509115826 | 5 | 68 | 0.0 | 0.0 | 0.18 | 0.10 | 0.10 | 98 | 1009.0 |
| 20260509115322 | 5 | 79 | 0.0 | 0.0 | 0.18 | 0.10 | 0.10 | 98 | 1008.6 |
| 20260509114820 | 5 | 69 | 0.0 | 0.0 | 0.00 | 0.08 | 0.08 | 97 | 1009.1 |
| 20260509114319 | 5 | 70 | 0.0 | 0.0 | 0.13 | 0.08 | 0.08 | 97 | 1008.8 |
| 20260509113818 | 5 | 62 | 0.0 | 0.0 | 0.13 | 0.08 | 0.08 | 97 | 1008.8 |
| 20260509113314 | 5 | 69 | 0.0 | 0.0 | 0.18 | 0.05 | 0.05 | 96 | 1008.9 |
| 20260509112811 | 5 | 62 | 0.0 | 0.0 | 0.18 | 0.05 | 0.05 | 96 | 1008.9 |
| 20260509112308 | 5 | 65 | 0.0 | 0.0 | 0.00 | 0.03 | 0.03 | 95 | 1008.9 |
| 20260509111805 | 5 | 68 | 0.0 | 0.0 | 0.00 | 0.03 | 0.03 | 95 | 1008.8 |
| 20260509111302 | 5 | 69 | 0.0 | 0.0 | 0.13 | 0.03 | 0.03 | 94 | 1008.8 |
| 20260509110759 | 5 | 65 | 0.0 | 0.0 | 0.13 | 0.03 | 0.03 | 93 | 1008.7 |
| 20260509110255 | 5 | 69 | 0.0 | 0.0 | 0.00 | 0.00 | 0.00 | 92 | 1008.7 |
| 20260509105754 | 5 | 76 | 0.0 | 0.0 | 0.00 | 0.00 | 0.00 | 91 | 1009.0 |
| 20260509105251 | 5 | 65 | 0.0 | 0.0 | 0.00 | 0.00 | 0.00 | 91 | 1008.9 |
| 20260509104748 | 5 | 62 | 1.6 | 1.6 | 0.00 | 0.00 | 0.00 | 91 | 1008.6 |
| 20260509104245 | 5 | 74 | 1.6 | 1.6 | 0.00 | 0.00 | 0.00 | 91 | 1008.5 |
| 20260509103743 | 5 | 79 | 0.0 | 0.0 | 0.00 | 0.00 | 0.00 | 91 | 1008.8 |
| 20260509103240 | 5 | 73 | 0.0 | 0.0 | 0.00 | 0.00 | 0.00 | 91 | 1008.7 |
| 20260509102738 | 5 | 61 | 1.6 | 1.6 | 0.00 | 0.00 | 0.00 | 91 | 1008.6 |
| 20260509102235 | 5 | 65 | 0.0 | 0.0 | 0.00 | 0.00 | 0.00 | 91 | 1008.6 |
| 20260509101731 | 5 | 69 | 0.0 | 0.0 | 0.00 | 0.00 | 0.00 | 91 | 1008.8 |
| 20260509101227 | 5 | 81 | 0.0 | 0.0 | 0.00 | 0.00 | 0.00 | 91 | 1008.7 |
| 20260509100725 | 5 | 68 | 0.0 | 0.0 | 0.00 | 0.00 | 0.00 | 90 | 1009.0 |
| 20260509100222 | 5 | 118 | 0.0 | 1.6 | 0.00 | 0.00 | 0.00 | 90 | 1008.9 |
| 20260509095719 | 5 | 79 | 0.0 | 0.0 | 0.00 | 0.00 | 0.00 | 90 | 1008.9 |
| 20260509095216 | 5 | 67 | 0.0 | 0.0 | 0.00 | 0.00 | 0.00 | 89 | 1009.2 |
| 20260509094713 | 5 | 85 | 0.0 | 1.6 | 0.00 | 0.00 | 0.00 | 89 | 1008.9 |
| 20260509094210 | 5 | 70 | 0.0 | 0.0 | 0.00 | 0.00 | 0.00 | 89 | 1008.8 |